Weather History for PAPG - November, 2012

Change the Weather History Date:

Saturday, November 24, 2012

  Actual Average Record
Temperature  
Mean Temperature 36 °F -  
Max Temperature 39 °F 37 °F 53 °F (2005)
Min Temperature 33 °F 30 °F 6 °F (2006)
Degree Days  
Heating Degree Days 29    
Moisture  
Dew Point 34 °F    
Average Humidity 87    
Maximum Humidity 93    
Minimum Humidity 81    
Precipitation  
Precipitation 0.00 in - - ()
Sea Level Pressure  
Sea Level Pressure 29.78 in    
Wind  
Wind Speed 9 mph (South)    
Max Wind Speed 20 mph    
Max Gust Speed 29 mph    
Visibility 7 miles    
Events      
Averages and records for this station are not official NWS values.
T = Trace of Precipitation, MM = Missing Value Source: NWS Daily Summary

Daily Weather History Graph

Daily Weather History Graph

Search for Another Location

Airport or City:

Trip Planner

Search our weather history database for the weather conditions in past years. The results will help you decide how hot, cold, wet, or windy it might be!

Date:

Astronomy

Nov. 24, 2012 Rise Set
Actual Time 7:52 AM AKST 3:24 PM AKST
Civil Twilight 7:06 AM AKST 4:10 PM AKST
Nautical Twilight 6:18 AM AKST 4:58 PM AKST
Astronomical Twilight 5:32 AM AKST 5:44 PM AKST
Moon 1:43 PM AKST (11/24) 3:41 AM AKST (11/24)
Length of Visible Light 9h 03m
Length of Day
7h 32m
Waxing Gibbous, 88% of the Moon is Illuminated
Nov 24
Waxing Gibbous
Nov 28
Full
Dec 6
Last Quarter
Dec 12
New
Dec 19
First Quarter

Hourly Weather History & Observations

Time (AKST) Temp. Windchill Dew Point Humidity Pressure Visibility Wind Dir Wind Speed Gust Speed Precip Events Conditions
12:16 AM 37.4 °F 28.9 °F 33.8 °F 87% 29.58 in 10.0 mi ESE 13.8 mph 21.9 mph N/A   Overcast
12:36 AM 37.4 °F 27.5 °F 33.8 °F 87% 29.58 in 10.0 mi ESE 18.4 mph 26.5 mph N/A   Overcast
12:56 AM 39.2 °F 31.2 °F 33.8 °F 81% 29.58 in 10.0 mi ESE 13.8 mph 24.2 mph N/A   Overcast
1:16 AM 39.2 °F 31.6 °F 33.8 °F 81% 29.59 in 10.0 mi ESE 12.7 mph 25.3 mph N/A   Overcast
1:36 AM 39.2 °F 30.2 °F 33.8 °F 81% 29.58 in 10.0 mi ESE 17.3 mph 27.6 mph N/A   Overcast
1:56 AM 39.2 °F 30.5 °F 33.8 °F 81% 29.59 in 8.0 mi ESE 16.1 mph 24.2 mph N/A   Overcast
2:16 AM 39.2 °F 31.2 °F 33.8 °F 81% 29.59 in 10.0 mi ESE 13.8 mph 21.9 mph N/A   Overcast
2:36 AM 39.2 °F 30.8 °F 33.8 °F 81% 29.59 in 8.0 mi ESE 15.0 mph 24.2 mph N/A   Overcast
3:16 AM 39.2 °F 30.8 °F 33.8 °F 81% 29.59 in 9.0 mi ESE 15.0 mph 20.7 mph N/A   Overcast
3:36 AM 39.2 °F 30.5 °F 33.8 °F 81% 29.59 in 9.0 mi ESE 16.1 mph 23.0 mph N/A   Overcast
3:56 AM 39.2 °F 32.5 °F 33.8 °F 81% 29.59 in 9.0 mi East 10.4 mph 28.8 mph N/A   Overcast
4:16 AM 39.2 °F 32.5 °F 33.8 °F 81% 29.59 in 10.0 mi ESE 10.4 mph 23.0 mph N/A   Overcast
4:36 AM 39.2 °F 29.6 °F 33.8 °F 81% 29.59 in 8.0 mi ESE 19.6 mph 27.6 mph N/A   Mostly Cloudy
4:56 AM 39.2 °F 31.6 °F 33.8 °F 81% 29.59 in 9.0 mi East 12.7 mph 24.2 mph N/A   Overcast
5:16 AM 39.2 °F 32.0 °F 33.8 °F 81% 29.59 in 8.0 mi ESE 11.5 mph 24.2 mph N/A   Overcast
5:36 AM 39.2 °F 32.5 °F 33.8 °F 81% 29.59 in 10.0 mi ESE 10.4 mph 20.7 mph N/A   Overcast
5:56 AM 39.2 °F 31.6 °F 33.8 °F 81% 29.59 in 7.0 mi ESE 12.7 mph 21.9 mph N/A   Overcast
6:16 AM 39.2 °F 34.2 °F 33.8 °F 81% 29.61 in 7.0 mi SE 6.9 mph 18.4 mph N/A   Overcast
6:36 AM 39.2 °F 31.2 °F 33.8 °F 81% 29.61 in 7.0 mi East 13.8 mph 19.6 mph N/A   Overcast
6:56 AM 39.2 °F - 33.8 °F 81% 29.62 in 7.0 mi Calm Calm - N/A   Overcast
7:16 AM 39.2 °F - 33.8 °F 81% 29.63 in 7.0 mi Calm Calm - N/A   Overcast
7:36 AM - - - N/A% 29.63 in 7.0 mi SSE 4.6 mph - N/A   Overcast
7:56 AM 39.2 °F 37.0 °F 33.8 °F 81% 29.64 in 7.0 mi East 3.5 mph - N/A   Overcast
8:36 AM 39.2 °F 34.2 °F 33.8 °F 81% 29.66 in 7.0 mi ESE 6.9 mph - N/A   Overcast
8:56 AM 37.4 °F 32.8 °F 33.8 °F 87% 29.67 in 7.0 mi SE 5.8 mph - N/A   Overcast
9:16 AM 37.4 °F - 33.8 °F 87% 29.67 in 7.0 mi Calm Calm - N/A   Overcast
9:36 AM 39.2 °F 37.0 °F 33.8 °F 81% 29.68 in 7.0 mi South 3.5 mph - N/A   Overcast
9:56 AM 39.2 °F 33.6 °F 35.6 °F 87% 29.68 in 7.0 mi East 8.1 mph - N/A   Overcast
10:16 AM 39.2 °F 34.2 °F 35.6 °F 87% 29.69 in 7.0 mi SE 6.9 mph 17.3 mph N/A   Overcast
10:36 AM 39.2 °F 35.0 °F 33.8 °F 81% 29.69 in 7.0 mi SSE 5.8 mph - N/A   Overcast
10:56 AM 39.2 °F 35.0 °F 35.6 °F 87% 29.71 in 5.0 mi West 5.8 mph - N/A   Overcast
11:16 AM 39.2 °F 35.0 °F 35.6 °F 87% 29.72 in 5.0 mi North 5.8 mph - N/A   Overcast
11:36 AM 39.2 °F 35.9 °F 35.6 °F 87% 29.73 in 5.0 mi NW 4.6 mph - N/A   Overcast
11:56 AM 39.2 °F 37.0 °F 35.6 °F 87% 29.74 in 5.0 mi WNW 3.5 mph - N/A   Overcast
12:16 PM 39.2 °F - 35.6 °F 87% 29.74 in 5.0 mi Calm Calm - N/A   Overcast
12:36 PM 39.2 °F - 35.6 °F 87% 29.74 in 5.0 mi Calm Calm - N/A   Overcast
12:56 PM 39.2 °F - 35.6 °F 87% 29.75 in 7.0 mi Calm Calm - N/A   Overcast
1:16 PM 39.2 °F - 35.6 °F 87% 29.76 in 7.0 mi Calm Calm - N/A   Overcast
1:36 PM 39.2 °F 37.0 °F 35.6 °F 87% 29.77 in 7.0 mi ENE 3.5 mph - N/A   Overcast
1:56 PM 37.4 °F - 35.6 °F 93% 29.78 in 4.0 mi Calm Calm - N/A   Overcast
2:16 PM 37.4 °F - 35.6 °F 93% 29.79 in 4.0 mi Calm Calm - N/A   Overcast
2:36 PM 37.4 °F 34.9 °F 35.6 °F 93% 29.80 in 4.0 mi WSW 3.5 mph - N/A   Overcast
2:56 PM 37.4 °F 34.9 °F 35.6 °F 93% 29.81 in 5.0 mi SSW 3.5 mph - N/A   Overcast
3:16 PM 37.4 °F 34.9 °F 35.6 °F 93% 29.82 in 5.0 mi SW 3.5 mph - N/A   Overcast
3:36 PM 37.4 °F 34.9 °F 35.6 °F 93% 29.83 in 5.0 mi SW 3.5 mph - N/A   Overcast
3:56 PM 37.4 °F 34.9 °F 35.6 °F 93% 29.84 in 3.0 mi SW 3.5 mph - N/A   Overcast
4:16 PM 37.4 °F - 35.6 °F 93% 29.85 in 3.0 mi Calm Calm - N/A   Overcast
4:36 PM 37.4 °F 34.9 °F 35.6 °F 93% 29.87 in 3.0 mi West 3.5 mph - N/A   Overcast
4:56 PM 35.6 °F 30.7 °F 33.8 °F 93% 29.88 in 3.0 mi WSW 5.8 mph - N/A   Overcast
5:16 PM 35.6 °F 28.6 °F 33.8 °F 93% 29.90 in 3.0 mi West 9.2 mph - N/A   Overcast
5:36 PM 35.6 °F 29.9 °F 33.8 °F 93% 29.91 in 3.0 mi West 6.9 mph - N/A   Overcast
5:56 PM 35.6 °F - 33.8 °F 93% 29.92 in 3.0 mi Calm Calm - N/A   Overcast
6:16 PM 35.6 °F - 33.8 °F 93% 29.93 in 3.0 mi Calm Calm - N/A   Overcast
6:36 PM 35.6 °F - 33.8 °F 93% 29.95 in 3.0 mi Calm Calm - N/A   Overcast
6:56 PM 35.6 °F 32.8 °F 33.8 °F 93% 29.96 in 5.0 mi SW 3.5 mph - N/A   Overcast
7:16 PM 35.6 °F 29.9 °F 32.0 °F 87% 29.98 in 5.0 mi SW 6.9 mph - N/A   Overcast
7:36 PM 35.6 °F 32.8 °F 32.0 °F 87% 29.99 in 5.0 mi SW 3.5 mph - N/A   Overcast
7:56 PM 35.6 °F 29.9 °F 32.0 °F 87% 30.00 in 7.0 mi West 6.9 mph - N/A   Overcast
8:16 PM 35.6 °F 28.6 °F 32.0 °F 87% 30.02 in 7.0 mi West 9.2 mph - N/A   Overcast
8:36 PM 35.6 °F 28.6 °F 32.0 °F 87% 30.03 in 7.0 mi West 9.2 mph - N/A   Overcast
8:56 PM 35.6 °F 32.8 °F 32.0 °F 87% 30.04 in 7.0 mi West 3.5 mph - N/A   Mostly Cloudy
9:16 PM 35.6 °F 30.7 °F 32.0 °F 87% 30.05 in 7.0 mi SSW 5.8 mph - N/A   Mostly Cloudy
9:36 PM 35.6 °F 31.7 °F 32.0 °F 87% 30.06 in 7.0 mi SSW 4.6 mph - N/A   Mostly Cloudy
9:56 PM 33.8 °F 30.8 °F 30.2 °F 87% 30.07 in 10.0 mi SW 3.5 mph - N/A   Mostly Cloudy
10:16 PM 33.8 °F 29.6 °F 30.2 °F 87% 30.08 in 10.0 mi SW 4.6 mph - N/A   Overcast
10:36 PM 33.8 °F 30.8 °F 30.2 °F 87% 30.10 in 10.0 mi WSW 3.5 mph - N/A   Overcast
10:56 PM 33.8 °F 30.8 °F 30.2 °F 87% 30.11 in 10.0 mi SW 3.5 mph - N/A   Overcast
11:16 PM 33.8 °F - 32.0 °F 93% 30.12 in 10.0 mi Calm Calm - N/A   Overcast
11:36 PM 33.8 °F - 32.0 °F 93% 30.12 in 10.0 mi Calm Calm - N/A   Overcast
11:56 PM 33.8 °F - 32.0 °F 93% 30.13 in 10.0 mi Calm Calm - N/A   Overcast